Погода в Рузаевке

Казахстан     52°49′18″N   66°57′05″E
темп.,
°C
ветер,
м/с
пор.,
м/с
влажн.,
%
обл.,
%
осадки,
мм/ч
давл.,
гПа
погр.,
м
2 марта, вт
вт200:00−21з1110070 0.0 101920
03:00−18юз229794 0.1 101932
06:00−19ююз239989 0.1 101832
09:00−17юз229798 0.3 101786
12:00−15ююз349588 0.3 1017230
15:00−12юз469398 0.1 1016365
18:00−12ююз489499 0.1 1015339
21:00−14ююз61196100 0.1 1016323
3 марта, ср
ср300:00−17ююз61396100 0.1 1016339
03:00−19ююз71397100 0.0 1016308
06:00−18ююз71295100 0.0 1016329
09:00−17ююз81494100 0.0 1014377
12:00−13ююз91594100 0.2 1014470
15:00−9юз91693100 0.4 1012652
18:00−6юз91794100 1.2 1011802
21:00−4юз91693100 0.5 1010855
4 марта, чт
чт400:00−4юз91593100 1.0 1009719
03:00−3ююз81595100 0.6 1007756
06:00−1ююз91596100 1.6 1006919
09:00−1ююз101696100 1.2 1004963
12:00−1ююз101596100 2.3 10041012
15:00−1юз91392100 0.6 10031035
18:00−2юз81394100 1.4 1004858
21:00−5з71387100 0.9 1006497
5 марта, пт
пт500:00−11зюз5119584 0.9 1010234
03:00−13юз5119647 0.0 1012204
06:00−14ююз5129346 0.0 1015245
09:00−12ююз8179363 0.0 1015440
12:00−9юз11189481 0.6 1014725
15:00−5юз132089100 0.6 1014905
18:00−4юз122090100 0.8 10141062
21:00−4юз121991100 0.4 10131057
6 марта, сб
сб600:00−5юз111894100 1.1 1014859
03:00−5юз101792100 1.0 1013738
06:00−5юз91693100 1.4 1014629
09:00−5юз81493100 0.3 1015522
12:00−4зюз7119499 0.3 1016507
15:00−3юз6995100 0.1 1017468
18:00−4ююз5895100 0.1 1017350
21:00−6ю5996100 0.1 1016281